FENGYUN 1C DEB

Satellite information

Favourite Embed

Satellite Type and Status

DEBRISIN ORBIT

Key statistics

Satellite FENGYUN 1C DEB at a glance.

Uptime

9675

Days in orbit

Revolutions

≈ 14.4

Per day

Orbit

SSO

Sun Synchronous Orbit

Inclination

98.9

Latest

Satellite identification and parameters

Extended collection of information and parameters for FENGYUN 1C DEB.

Object identification

Identified? True

Debris? True

Object name: FENGYUN 1C DEB

International designator: 1999-025CEA

Object number (NORAD): 31727

Object ID (CCSDS): 31727

Country: PEOPLES REPUBLIC OF CHINA (PRC)

Current information (Y/N): Y

RCS size: SMALL

Orbital parameters

Period: 100.256 minutes

Inclination: 98.8656 deg

SMA: 7148.81 km

Apoapsis: 795.308 km

Periapsis: 746.042 km

RAAN: 55.9492 deg

Eccentricy: 0.00344573

Argument of periapsis: 106.1262 deg

Mean anomaly: 16.7254 deg

Mean motion: 14.36323065 rev/day

Mean motion (dot): 0.00007551 rev/day2

B* drag term: 0.0025777423 1/REarth

Two-line elements (TLE)

Creation date: Nov. 1, 2025, 7:40 p.m.

Reference frame: TEME

Reference center: EARTH

Epoch: Nov. 1, 2025, 3:07 a.m. UTC

TLE line 0: 0 FENGYUN 1C DEB

TLE line 1: 1 31727U 99025CEA 25305.13051220 .00007551 00000-0 25777-2 0 9992

TLE line 2: 2 31727 98.8656 55.9492 0034457 106.1262 16.7254 14.36323065710713

Live tracking on map

Real-time ground track for satellite FENGYUN 1C DEB.

In-orbit conjunctions

A list of the most updated potential collisions computed for object FENGYUN 1C DEB.

Target Orbit TCA Probability of collision Miss distance Type
SL-8 R/B LEO 2025-06-10 03:53:37 0.0001232688 486.0 (m) ROCKET BODY
CZ-6A DEB LEO 2025-02-22 15:04:35 0.000320042 242.0 (m) DEBRIS

Associated space launch

Chinese polar orbiting meteorological satellite

FENGYUN 1C DEB was lifted into orbit during the mission ‘Long March 4B | Feng Yun 1C’, on board a Long March 4B space rocket.

The launch took place on May 10, 1999, 1:33 a.m. from Launch Complex 7.

For more information about the launch, click the button.

Launch to space Long March 4B | Feng Yun 1C
Long March 4B | Feng Yun 1C

Agency: N/A

Status: Launch Successful

Launch date: May 10, 1999, 1:33 a.m. UTC

Rocket: Long March 4B

Launch pad: Launch Complex 7

Location: Taiyuan Satellite Launch Center, People's Republic of China

...

Latest news about this satellite

There are no fresh news available about this satellite. Check back as we update our databases every day.


Newsletter sign-up

Weekly statistics, charts and insights to help you stay on top of the space industry.